User: anonymous   Login
Location: Tucson
(32.2217°N, 110.9265°W)
Time: 15:53:13
(UTC-07:00)
Language:

SRMSAT - Orbit

View from above orbital plane
View from above orbital plane
View from above satellite
View from above satellite

Ground track
Ground track

The orbit data is extracted from the following two-line orbital elements,

1 37841U 11058D   21340.37007368  .00000320  00000-0  30753-4 0  9999
2 37841  19.9736 341.9941 0011950  23.7411   6.3162 14.10714146523945
Epoch (UTC): 06 December 2021 08:52:54
Eccentricity: 0.0011950
inclination: 19.9736°
perigee height: 848 km
apogee height: 865 km
right ascension of ascending node: 341.9941°
argument of perigee: 23.7411°
revolutions per day: 14.10714146
mean anomaly at epoch: 6.3162°
orbit number at epoch: 52394

The dashed part of the orbit path shows where the satellite is in the earth's shadow,  

DLR